Regional Weather Roundup
Issued by NWS

Home | Current Version | Previous Version | Text Only | Print | Product List | Glossary Off
Versions: 1 2 3 4 5 6 7 8 9 10 11 12 13 14 15 16 17 18 19 20 21 22 23 24 25 26 27 28 29 30 31 32 33 34 35 36 37 38 39 40 41 42 43 44 45 46 47 48 49 50

000
ASUS43 KMKX 250421
RWRWI

WISCONSIN REGIONAL WEATHER ROUNDUP
NATIONAL WEATHER SERVICE MILWAUKEE/SULLIVAN WI
1100 PM CDT WED AUG 24 2016

NOTE: "FAIR" INDICATES FEW OR NO CLOUDS BELOW 12,000 FEET WITH NO
SIGNIFICANT WEATHER AND/OR OBSTRUCTIONS TO VISIBILITY.

WIZ001-002-006>008-014>016-023>028-250500-
NORTHWEST WISCONSIN

CITY           SKY/WX    TMP DP  RH WIND       PRES   REMARKS
SUPERIOR ARPT  CLOUDY    64  57  78 SW5       29.93S
ASHLAND        CLOUDY    62  57  83 SW5       29.93R
HAYWARD        PTCLDY    61  58  90 CALM      29.96S
SIREN          CLOUDY    65  57  75 W6        29.97S
CUMBERLAND     MOCLDY    63  54  72 W6        29.97S
RICE LAKE      MOCLDY    62  56  82 CALM      29.98S
CHETEK         NOT AVBL
LADYSMITH      PTCLDY    64  58  80 W3        29.98R
EAU CLAIRE     CLOUDY    66  58  75 CALM      29.96S
MENOMONIE      CLOUDY    66  58  75 W5        29.98S
NEW RICHMOND   CLOUDY    63  57  81 W7        29.98F
OSCEOLA        CLOUDY    64  58  81 W6        30.00F
$$

WIZ003>005-009-010-017-018-250500-
NORTH CENTRAL WISCONSIN

CITY           SKY/WX    TMP DP  RH WIND       PRES   REMARKS
MANITOWISH WTR NOT AVBL
ARBOR VITAE    PTCLDY    64  60  84 W3        29.95S
WOODRUFF       PTCLDY    64  60  84 W3        29.95S
RHINELANDER    MOCLDY    63  59  87 W3        29.96S
EAGLE RIVER    MOCLDY    64  61  90 W7        29.94S
LAND O LAKES   PTCLDY    63  61  92 CALM      29.94F
PHILLIPS       CLOUDY    62  58  88 CALM      29.97R
TOMAHAWK       PTCLDY    60  58  92 CALM      29.97R
MEDFORD        CLOUDY    63  62  98 W5        29.97R
MERRILL        MOCLDY    66  63  90 CALM      29.97R
$$

WIZ029-030-035-036-043>047-250500-
CENTRAL WISCONSIN

CITY           SKY/WX    TMP DP  RH WIND       PRES   REMARKS
WAUSAU         PTCLDY    68  64  87 NW3       29.94S
MOSINEE        CLOUDY    64  64 100 W5        29.97S
MARSHFIELD     CLOUDY    67  63  87 W7        29.96S
STEVENS POINT  CLOUDY    67  65  95 CALM      29.96S
WAUPACA        CLOUDY    71  70  97 CALM      29.95S
WAUTOMA        PTCLDY    68  67  96 CALM      29.96S
WISC RAPIDS    CLOUDY    68  67  96 W3        29.97S
CAMP DOUGLAS   MOCLDY    64  64 100 W2        29.97R FOG
$$

WIZ011>013-019>022-031-037>040-048>050-250500-
NORTHEAST WISCONSIN

CITY           SKY/WX    TMP DP  RH WIND       PRES   REMARKS
ANTIGO         PTCLDY    64  64  99 CALM      29.96S
SHAWANO        MOCLDY    69  65  90 SW3       29.94S
OCONTO         NOT AVBL
STURGEON BAY   CLOUDY    72  67  84 W7        29.91F
GREEN BAY      CLOUDY    67  67 100 W5        29.93F
MANITOWOC      MOCLDY    72  70  93 W3        29.93S
APPLETON       MOCLDY    70  70 100 VRB5      29.94S
CLINTONVILLE   PTCLDY    68  64  88 W5        29.94S
OSHKOSH        CLOUDY    72  69  90 W5        29.94S
$$

WIZ032>034-041-042-053>061-250500-
SOUTHWEST WISCONSIN

CITY           SKY/WX    TMP DP  RH WIND       PRES   REMARKS
LA CROSSE      CLOUDY    72  32  23 NW8       29.98R
SPARTA         CLOUDY    65  65  99 CALM      29.99R
VIROQUA        CLOUDY    68  65  90 NW5       30.01R
BOSCOBEL       CLOUDY    72  70  93 CALM      29.98R
PRAIRIE DU CHI CLOUDY    72  68  87 CALM      29.97S
PLATTEVILLE    CLOUDY    73  73 100 CALM      29.99S
$$

WIZ056-057-062-063-064-067-068-250500-
SOUTH CENTRAL WISCONSIN

CITY           SKY/WX    TMP DP  RH WIND       PRES   REMARKS
REEDSBURG      NOT AVBL
BARABOO/DELLS  PTCLDY    70  67  90 W3        29.97S
LONE ROCK      CLOUDY    71  67  87 CALM      29.98R
MINERAL POINT  CLOUDY    73  72  94 NW3       29.99R FOG
MADISON        MOCLDY    75  72  90 NW5       29.96R
MIDDLETON      MOCLDY    74  73  95 NW3       29.97S
WATERTOWN      CLOUDY    73  73 100 CALM      29.95S
MONROE         CLOUDY    73  70  88 W8        29.96F
JANESVILLE     CLOUDY    75  73  94 SW3       29.95S
$$

WIZ051-052-058>065-066-070>072-250500-
SOUTHEAST WISCONSIN

CITY           SKY/WX    TMP DP  RH WIND       PRES   REMARKS
MILWAUKEE      CLOUDY    80  72  76 CALM      29.94R HX  84
WAUKESHA       CLOUDY    72  72 100 CALM      29.96S
MILWAUKEE/TIMM CLOUDY    75  70  83 NW3       29.95S
RACINE         CLOUDY    77  71  82 SW6       29.95F
BURLINGTON     CLOUDY    71  70  96 CALM      29.95R
KENOSHA        MOCLDY    76  72  87 SW7       29.95S
FOND DU LAC    CLOUDY    71  69  93 W5        29.95R
SHEBOYGAN      PTCLDY    69  68  96 SW5       29.94S
WEST BEND      CLOUDY    72  70  94 CALM      29.95S
JUNEAU         CLOUDY    71  70  98 CALM      29.96S FOG
$$

LSZ147-162-250500-
LAKE SUPERIOR

STATION/POSITION TIME  TEMP    WIND        PRES    WAVE
                       AIR SEA DIR/SP/G            HT/PER
                 (UTC) (F)     (DEG/KT/KT) (MB)    (FT/S)
W MID LAKE BUOY  0250   71 69  260/ 16/ 17 1009.5R   2/ 4
DEVILS ISLAND    0400   69     250/ 13/ 15 1012.0R
PORT WING        0300   72     240/  8/ 11 1012.9R
SAXON HARBOR     0300   70     190/  7/  9 1012.5R
$$

LMZ867-665-643>646-250500-
LAKE MICHIGAN

STATION/POSITION TIME  TEMP    WIND        PRES    WAVE
                       AIR SEA DIR/SP/G            HT/PER
                 (UTC) (F)     (DEG/KT/KT) (MB)    (FT/S)
CHAMBERS ISLAND  0300   73     220/  6/ 10 1012.5R
S GREEN BAY BUOY 0400   72 73  260/  8/ 10 1012.6F
N MID LAKE BUOY  0250   71 70  230/ 12/ 14 1011.1R   5/ 7
NORTHPORT PIER   0300   71     240/  2/  4 1012.2R
SISTER BAY       0307   74     250/  9/ 10   N/A
ALGOMA LAKESHORE 0200          260/  5/  8   N/A
KEWAUNEE LAKESHO 0300   72     290/  2/  3 1012.9R
SHEBOYGAN LAKESH 0400   67     190/  7/  8 1013.2R
PORT WASHINGTON  0300   65     200/  2/  5 1014.2F
ATWATER BUOY     0400   57 46  310/  2/  4   N/A
MILWAUKEE LAKESH 0310   75     110/  2/  2   N/A
S MID LAKE BUOY  0250   75 75  190/ 10/ 12 1013.3R   1/ 4
KENOSHA   LAKESH 0400   78     220/  9/ 12 1013.5F
$$

TC  - TEMPERATURE IN CELSIUS
VSB - VISIBILITY IN STATUTE MILES
WCI - WIND CHILL INDEX
HX  - HEAT INDEX





USA.gov is the U.S. government's official web portal to all federal, state and local government web resources and services.